Погода в Куре

Погода в Куре : погода сейчас, прогноз погоды и архив. Всё, что Вы хотите узнать о погоде в Куре!

Поиск расширенной информации на нашем сайте:

Другие новости

Новости СМИ2

Главная страница сайта

Новости сайта

02.10.2013

Напоминаем, что на нашем новом сайте вы можете получить высокодетализированные прогнозы погоды по пунктам России, СНГ и мира (включающие важные для авиации метеовеличины, такие как направление и скорость ветра, видимость, явления погоды, количество и форма облачности, нижняя и верхняя граница облачности), а также ознакомиться с разнообразными материалами по авиационной метеорологии и подборкой полезных ссылок на эту тему.

Сайт Метеоцентр.Азия посвящён разработке технологий оптимизации авиаметеорологического обслуживания, включая проектирование и перспективное создание нескольких автоматизированных авиаметеорологических систем:
- система выпуска высокодетальных прогностических карт явлений погоды для нижнего воздушного пространства по России и ближнему зарубежью;
- система верификации прогнозов TAF (выпускаемых синоптиками официальных АМСГ РФ и ближнего зарубежья) и AUTOTAF (выпускаемых сайтом Метеоцентр.Азия) - выявление ошибок, онлайн-сопоставление с фактической погодой METAR, автоматическое внесение коррективов в прогнозы при резком отклонении фактической погоды от прогноза, подсчёт оправдываемости прогнозов по элементам и в целом;
- система обработки, анализа и отображения авиаметеорологической информации для применения провайдерами метеорологической информации.


Погода в Куре - сегодня

Время (UTC), дата Ветер
(°,м/с) 
Видим.   Явления Облачность Т
(°С)
Тd
(°С)
f(%) Тe
(°С)
Pmin
(гПа)
dP
(гПа)
Po
(мм)
O2
(г/м3)
Тmin Tmax R s Состояние
почвы
15 26.03.17 020 (С) 20000 м    ясно 
-5.8 -6.5 95 -5  1018.7  -0.1  737  304           
18 26.03.17 050 (СВ) 20000 м    ясно 
-6.1 -6.9 94 -8  1018.7  -0.1  737  304           
21 26.03.17 050 (СВ) 20000 м    3/0 средняя 
[Ac lent]
-7.9 -8.1 98 -8  1018.7  -0.3  737  307  -8      мокрый или
старый снег
50-90% 
00 27.03.17 050 (СВ) 20000 м    4/0 средняя 
[As trans]
-2.8 -6.5 76 -2  1018  737  301           
03 27.03.17 270 (З) 20000 м    8/8 600 м кучево-дожд. 
[Cb cap]
+4.2 -6 47 +4  1014.8  -2.1  735  292           
06 27.03.17 270 (З) 20000 м  слаб. ливневой дождь  8/6 600 м кучево-дожд., верхняя 
[Cb cap|Ci fib]
+3.7 -2.9 62 +5  1013.7  -1.2  734  292           
09 27.03.17 250 (З) 20000 м  {ливн. осадки}  8/8 600 м кучево-дожд., средняя, верхняя 
[Cb cap|Ac cuf|Ci fib]
+0.4 -1.6 86 1014.1  734  296    +5.3  0.7     
12 27.03.17 тихо ()   20000 м  {ливн. осадки}  ясно 
-3.6 -3.8 99 -4  1015.3  0.7  735  300           
15 27.03.17 тихо ()   20000 м    ясно 
-6.2 -6.4 98 -6  1015.1  -0.6  734  303           
18 27.03.17 тихо ()   20000 м    ясно 
-8.7 -9 98 -9  1014.6  -0.7  734  306           
21 27.03.17 тихо ()   20000 м    4/4 600 м 
[Sc]
-10.2 -10.2 100 -10  1015.4  0.5  734  308  -10.2      мокрый или
старый снег
50-90% 
00 28.03.17 050 (СВ) 20000 м    ясно 
-2.5 -5.8 78 -4  1013.1  -1.1  733  299           
03 28.03.17 250 (З) 20000 м    8/5 600 м верхняя 
[Cu med, cong|Ci]
+5.4 -9.6 33 +5  1010.4  -1.7  732  290           
06 28.03.17 340 (С) 20000 м    8/8 600 м верхняя 
[Sc diur, vesp|Cs]
+6.8 -13.2 22 +7  1009  -1.2  731  289           
09 28.03.17 230 (ЮЗ) 20000 м    6/4 600 м средняя, верхняя 
[Sc diur, vesp|Ac cuf|Ci]
+4.6 -11.3 30 +5  1010.5  1.2  732  291    +7.9       
12 28.03.17 тихо ()   20000 м    3/0 средняя, верхняя 
[Ac lent|Ci fib]
-2.8 -7.5 70 -3  1014.1  2.5  734  300           
15 28.03.17 тихо ()   20000 м    ясно 
-5.3 -6.7 90 -5  1014.9  0.4  734  302           
18 28.03.17 тихо ()   20000 м    ясно 
-6 -7.1 92 -6  1015.4  0.4  735  303           
21 28.03.17 050 (СВ) 20000 м    3/0 верхняя 
[Ci fib]
-7.7 -8.3 95 -7  1016.2  0.7  735  306  -7.7      мокрый или
старый снег
10-40% 
00 29.03.17 070 (В) 20000 м    4/1 600 м верхняя 
[Cu hum|Cc]
-1.6 -6.4 70 -3  1016.5  1.1  736  299           
03 29.03.17 230 (ЮЗ) 20000 м    8/5 600 м верхняя 
[Cu med, cong|Cs]
+4.8 -7.7 40 +4  1015  -0.8  735  292           
06 29.03.17 320 (СЗ) 10 км    9/9 600 м кучево-дожд. 
[Cb cap]
+3.9 -6.5 47 +3  1015.2  -0.1  735  293           
09 29.03.17 тихо ()   20000 м    8/5 600 м кучево-дожд., средняя, верхняя 
[Cb cap|Ac cuf|Ci ing]
+2.6 -2.3 70 +3  1016.9  1.5  737  294    +7.5       
12 29.03.17 тихо ()   20000 м    8/8 600 м 
[Sc diur, vesp]
-0.2 -0.2 100 -0  1019.7  2.4  738  298           
15 29.03.17 050 (СВ) 20000 м    ясно 
-2.6 -2.9 98 -2  1020.8  0.7  739  301           
Время (UTC), дата Ветер
(°,м/с) 
Видим.   Явления Облачность Т
(°С)
Тd
(°С)
f(%) Тe
(°С)
Pmin
(гПа)
dP
(гПа)
Po
(мм)
O2
(г/м3)
Тmin Tmax R s Состояние
почвы

Для получения пояснительной информации подведите курсор к названию столбца.

ПОГОДА в Куре - архив

Всё, что Вы хотите узнать о погоде в Куре - удобно и подробно!

Выберите нужную дату (начиная с 1 января 2015* года) и нажмите кнопку "Найти".
Будут отображены архивные сводки погоды по пункту Кур, начиная с указанной даты.


Отображать данные в формате CSV (для использования в таблицах Excel)


Внимание! Наш архив погоды предназначен исключительно для личного некоммерческого использования в познавательных целях. Если Вам необходимы официальные справки о состоянии погоды (для производственных, юридических, коммерческих и т.п. целей), обращайтесь в органы Росгидромета.

*Примечание: данная дата относится к архиву по метеостанциям СССР (Россия, СНГ, Балтия).
Архив по метеостанциям Зарубежной Европы и Азии (кроме Китая) хранится 10 дней, по другим регионам земного шара (Китай, Африка, Америка, Австралия, Океания) - 1 день.

Кур - район местоположения метеостанции


Название, широта, долгота, высота метеостанции:
Кур 49.9°ш. 134.6°д. 283 м над ур. моря [Российская Федерация]

Дополнительная информация

В oтличие oт бoльшинства пoгoдных сайтoв мы публикуем пoдрoбную метеoинфoрмацию в детальнoм прoфессиoнальнoм фoрмате.

Характеристики температуры и влажнoсти вoздуха измеряются на высoте 2 м в тени вдали oт зданий и деревьев.
Скoрoсть ветра измеряется на высoте 10 м (на урoвне рoста челoвека скoрoсть ветра ниже в 1.5-2 раза). Если метеoстанция нахoдится в гoрoде или в лесу, тo скoрoсть ветра занижена на 2-4 м/с пo сравнению с oткрытым местoм. Скoрoсть ветра над акватoриями крупных рек и oзёр, а также на вершинах хoлмoв на 2-5 м/с выше, чем в oбычных услoвиях.
Атмoсфернoе давление в разных тoчках местнoсти мoжет значительнo oтличаться oт давления на метеoстанции, в зависимoсти oт услoвий рельефа (при пoдъёме на 10 м давление пoнижается примернo на 1 мм рт.ст.).